www.pogodaiklimat.ru

Погода и климат >> Архив погоды >> Россия >> Самарская область >> Самара


АРХИВ ПОГОДЫ в Самаре

Время (UTC), дата Ветер
(напр.,м/с)
 
Видим.   Явления Облачность Т
(С)
Тd
(С)
f
(%)
Тe
(С)
Тes
(С)
Комфортность P
(гПа)
Po
(гПа)
Тmin
(С)
Tmax
(С)
R
(мм)
R24
(мм)
S
(см)
12 12.12 В 4 10 км 9/0
[Ac trans Ci fib]
-7.0 -12.7 64 -13 -13 1021.4 1003.3
15 12.12 В 3 10 км 9/0
[Ac trans]
-6.0 -11.3 66 -11 -11 1020.7 1002.7 -5.8
18 12.12 В 2 10 км 10/5 600 м
[Sc Ac trans]
-5.0 -9.1 73 -9 -9 1020.4 1002.5
21 12.12 В 4 н/о н/о -3.8 -6.1 84 -10 -10 1020.0 1002.1
00 13.12 В 2 10 км слабый снег 10/10 600 м
[Sc]
-2.7 -3.9 91 -7 -7 1019.4 1001.6
03 13.12 В 2 10 км слабый ливневой снег 10/10 300 м
[Cb calv]
-2.8 -4.7 87 -7 -7 1020.1 1002.3 -6.1 3 15
06 13.12 В 2 10 км в посл. час ливневой снег 10/10 300 м
[Cb cap]
-3.2 -4.6 90 -7 -7 1020.8 1003.0
09 13.12 В 2 10 км 10/10 600 м
[Sc diur, vesp]
-2.8 -5.7 80 -7 -7 1021.0 1003.2
12 13.12 В 1 10 км 10/8 600 м
[Sc]
-2.4 -6.8 72 -4 -4 1021.0 1003.2
15 13.12 В 2 10 км 10/8 600 м
[Sc Ac und]
-2.6 -7.2 71 -6 -6 1021.1 1003.3 -2.2 1
18 13.12 В 3 10 км 10/8 600 м
[Sc Ac und]
-2.7 -8.5 64 -7 -7 1020.7 1002.9
21 13.12 В 3 10 км 10/8 600 м
[Sc Ac und]
-2.2 -9.2 59 -7 -7 1020.5 1002.7
00 14.12 В 3 10 км 6/3 600 м
[Sc Ac trans]
-2.7 -8.6 64 -7 -7 1019.8 1002.0
03 14.12 В 3
{10}
10 км 8/3 600 м
[Sc Ac trans Ci fib]
-2.5 -8.4 64 -7 -7 1018.9 1001.1 -2.9 15
06 14.12 В 3
{11}
10 км 10/6 600 м
[Sc Ac trans]
-1.6 -7.6 64 -6 -6 1019.0 1001.3
09 14.12 В 3
{10}
10 км слабый снег {метель} 10/10 300 м
[Frnb Ns]
-2.7 -4.1 90 -8 -8 1019.0 1001.2
12 14.12 В 4
{10}
10 км слабый снег {метель} 10/10 300 м
[Frnb Ns]
-2.5 -4.1 89 -9 -9 1018.9 1001.2
15 14.12 В 3
{10}
10 км слабый снег {метель} 10/10 300 м
[Frnb Ns]
-2.6 -3.8 91 -8 -8 1018.9 1001.1 -1.6 4
18 14.12 В 3 10 км слабый снег {метель} 10/8 600 м
[Sc Ci fib]
-2.7 -4.2 89 -8 -8 1018.9 1001.2
21 14.12 В 3 10 км слабый снег {метель} 10/10 600 м
[Sc]
-3.2 -4.6 90 -9 -9 1018.8 1001.0
00 15.12 В 3
{10}
10 км слабый снег {метель} 10/10 600 м
[Sc]
-3.4 -5.0 89 -9 -9 1018.9 1001.1
03 15.12 В 2 10 км позёмок {снег, метель} 9/9 600 м
[Sc]
-3.5 -5.4 87 -8 -8 1019.8 1002.0 -3.5 2 16
06 15.12 СВ 2 4000 м слабый снег {метель} 10/8 600 м
[Sc diur, vesp Ac trans]
-1.9 -3.9 86 -6 -6 1021.3 1003.6 -3.5
09 15.12 СВ 3 4000 м слабый снег 10/10 600 м
[Sc diur, vesp]
-1.2 -3.2 86 -6 -6 1022.4 1004.7
12 15.12 СВ 3 10 км {снег} 10/8 600 м
[Sc Ac trans]
-1.4 -3.3 87 -6 -6 1023.8 1006.1
15 15.12 СВ 2 10 км 10/5 600 м
[Sc Ac trans]
-2.1 -4.2 86 -6 -6 1025.6 1007.8 -1.2 0.2
18 15.12 СВ 1 10 км 10/5 600 м
[Sc Ac trans]
-2.6 -4.9 84 -5 -5 1026.8 1008.9
21 15.12 С 1 10 км 10/3 600 м
[Sc Ac trans]
-4.5 -6.5 86 -7 -7 1028.0 1010.0
00 16.12 С 1 10 км 10/0
[Ac trans]
-5.5 -7.5 86 -8 -8 1029.6 1011.4
03 16.12 С 2 10 км 10/5 600 м
[Sc Ac trans]
-5.9 -7.6 88 -10 -10 1030.6 1012.4 -6.1 16
06 16.12 СЗ 2 10 км 10/6 600 м
[Sc Ac trans]
-6.1 -8.0 86 -10 -10 1032.3 1014.1 -6.2
09 16.12 СЗ 2 10 км 6/3 600 м
[Sc Ac trans]
-6.2 -8.5 84 -11 -10 1032.9 1014.6
12 16.12 С 2 10 км 9/4 600 м
[Sc Ac trans]
-8.3 -10.3 85 -13 -13 1033.6 1015.2
15 16.12 СЗ 1 10 км 10/5 600 м
[Sc Ac trans]
-8.7 -10.4 87 -11 -11 1034.6 1016.1 -5.4
18 16.12 С 2 10 км 10/5 600 м
[Sc Ac trans]
-8.4 -9.8 90 -13 -13 1034.8 1016.4
21 16.12 С 1 10 км 10/10 600 м
[Sc]
-8.5 -9.9 90 -11 -11 1035.3 1016.8
00 17.12 С 1 10 км 10/10 600 м
[Sc]
-9.0 -10.4 90 -11 -11 1036.0 1017.5
03 17.12 С 1 4000 м дымка 10/10 600 м
[Sc]
-8.5 -10.0 89 -11 -11 1035.7 1017.2 -9.1 16
06 17.12 С 1 4000 м дымка 10/8 600 м
[Sc Ac und]
-7.8 -9.1 90 -10 -10 1035.8 1017.4
09 17.12 СЗ 1 4000 м дымка 10/10 600 м
[Sc]
-6.6 -7.9 90 -9 -9 1035.6 1017.3
12 17.12 штиль 0 10 км 9/9 600 м
[Sc]
-6.1 -7.3 91 -7 -7 1035.2 1016.9
15 17.12 СВ 1 10 км 9/8 600 м
[Sc Ac trans]
-5.8 -7.1 91 -8 -8 1036.0 1017.7 -5.8
18 17.12 СВ 1 10 км 10/8 600 м
[Sc Ac und]
-5.7 -7.3 88 -8 -8 1036.7 1018.4
21 17.12 СВ 1 10 км 10/10 600 м
[Sc]
-5.9 -7.5 88 -8 -8 1037.2 1018.9
00 18.12 В 1 10 км 10/10 600 м
[Sc]
-6.4 -7.7 90 -9 -9 1037.3 1019.0
03 18.12 СВ 2 10 км 10/10 600 м
[Sc]
-7.1 -8.3 91 -12 -12 1037.4 1019.0 -7.1 16
06 18.12 СВ 1 4000 м дымка {снег} 10/10 300 м
[St]
-7.2 -8.6 90 -10 -10 1038.4 1020.0 -7.3
09 18.12 СВ 1 2000 м слабый снег 10/10 300 м
[Frnb Ns]
-7.2 -8.5 90 -10 -10 1038.2 1019.8
12 18.12 В 1 4000 м слабый снег 10/10 600 м
[Frnb Ns]
-7.5 -8.8 90 -10 -10 1038.2 1019.8
15 18.12 В 1 2000 м дымка {снег} 10/10 300 м
[Frnb Ns]
-8.9 -10.4 89 -11 -11 1038.9 1020.3 -6.9 0.6
18 18.12 В 1 2000 м дымка {снег} 10/10 300 м
[St]
-9.2 -10.6 90 -12 -12 1039.3 1020.7
21 18.12 В 1 2000 м 10/10 300 м
[St]
-10.3 -11.8 89 -13 -13 1039.9 1021.2
00 19.12 В 1 4000 м дымка {снег} 10/10 600 м
[Sc]
-10.1 -11.6 89 -12 -12 1039.8 1021.2
03 19.12 В 1 1000 м дымка 10/10 300 м
[St]
-9.9 -11.4 89 -12 -12 1040.2 1021.6 -10.3 0.0 15
06 19.12 В 1 2000 м слабый снег 10/10 300 м
[Sc diur, vesp]
-9.4 -10.8 90 -12 -12 1040.9 1022.3
09 19.12 Ю 1 4000 м слабый снег 10/10 300 м
[Frnb Ns]
-9.2 -10.6 90 -12 -12 1041.1 1022.5

 

Местоположение метеостанции Самара (Самарская область, Россия): широта 53.25 долгота 50.22 высота над уровнем моря 139 м.

В архиве по умолчанию представлена погода в Самаре за последнюю неделю. Архивные данные за месяц целиком и за предыдущие месяцы, начиная с января 2011 года, Вы можете получить, выбрав интересующий диапазон дат из раскрывающегося списка и нажав кнопку "Ввод!".


*Определитесь, кто Вы:
робот инопланетянин человек

Внимание! Время в таблицах - всемирное. Для получения местного времени необходимо прибавить поправку, которая в Самаре равна 4 ч.

Смотрите также архив погоды в соседних городах и на ближайших метеорологических станциях:

Погода в Самаре АМС (Самарская область, Россия) (7 км)
Погода в Самаре-Центр (Самарская область, Россия) (8 км)
Погода в Курумоче (Самарская область, Россия) (28 км)
Погода в Аглосе (Самарская область, Россия) (32 км)
Погода в Чапаевске (Самарская область, Россия) (43 км)
Погода в Безенчуке (Самарская область, Россия) (61 км)
Погода в Тольятти (Самарская область, Россия) (69 км)
Погода в Богатом (Самарская область, Россия) (73 км)
Погода в Кинель-Черкассах (Самарская область, Россия) (94 км)
Погода в Большая Глушица (Самарская область, Россия) (98 км)

Пояснения к столбцам:

Ветер - указаны скорость ветра в м/с - средняя за 10 мин, порывы в срок и между сроками (в фигурных скобках) и направление, откуда дует ветер: С - северный, СВ - северо-восточный, В - восточный, ЮВ - юго-восточный, Ю - южный, ЮЗ - юго-западный, З - западный, СЗ - северо-западный.
Видимость - горизонтальная дальность видимости в метрах или километрах. При видимости от 1 до 10 км при отсутствии осадков обычно наблюдается дымка, при ухудшении видимости до 1 км и менее - туман. В сухую погоду видимость может ухудшаться дымом, пылью или мглою.
Явления - указаны атмосферные явления, наблюдавшиеся в срок или в последний час перед сроком; фигурными скобками обозначены явления, наблюдавшиеся между сроками (за 1-3 часа до срока); квадратными скобками обозначены град или гололедные отложения с указанием их диаметра в мм.
Облачность - указаны через наклонную черту общая и нижняя облачность в баллах и высота нижней границы облаков в метрах; квадратными скобками обозначены формы облаков: Ci - перистые, Cs - перисто-слоистые, Cc - перисто-кучевые, Ac - высококучевые, As - высокослоистые, Sc - слоисто-кучевые, Ns - слоисто-дождевые, Cu - кучевые, Cb - кучево-дождевые. Подробнее классификацию облаков см. в Атласе облаков (PDF).
T - Температура воздуха - температура, измеренная на высоте 2 м над землей.
Td - Температура точки росы - температура, при понижении до которой содержащийся в воздухе водяной пар достигнет насыщения.
f - Относительная влажность воздуха - влажноcть воздуха, измеренная на высоте 2 м над землей.
Te - Эффективная температура - температура, которую ощущает одетый по сезону человек в тени. Характеристика душности погоды. При расчете учитывается влияние влажности воздуха и скорости ветра на теплоощущения человека.
Tes - Эффективная температура на солнце - температура, которую ощущает человек, с поправкой на солнечный нагрев. Характеристика знойности погоды. Зависит от высоты солнца над горизонтом, облачности и скорости ветра. Ночью, в пасмурную погоду, а также при ветре 12 м/с и более поправка равна нулю.
P - Атмосферное давление - приведенное к уровню моря атмосферное давление.
Po - Атмосферное давление - измеренное на уровне метеостанции атмосферное давление.
Tmin - Минимальная температура - минимум температуры воздуха на высоте 2 м над землей.
Tmax - Максимальная температура - максимум температуры воздуха на высоте 2 м над землей.
R - Количество осадков - Количество выпавших осадков за период времени, мм. При наведении курсора мыши на число - период времени, за который выпало указанное количество осадков.
R24 - Количество осадков - Количество выпавших осадков за 24 часа, мм.
S - Снежный покров - Высота снежного покрова, см. При наведении курсора мыши на число - состояние снежного покрова и степень покрытия местности в баллах.